Location: Kumla
(59.1265°N, 15.1401°E)
Time: 20:54:58
(UTC+01:00)

A-11 Canister half - Pass Details

Date: 09 December 2023
Orbit: 1526 x 1682 km, 47.3° (Epoch: 21 February)

Event Time Altitude Azimuth Distance (km) Brightness Sun altitude
Rises 17:41:54 0° 208° (SSW) 4,916 12.3 -18.2°
Reaches altitude 10° 17:45:41 10° 197° (SSW) 3,937 11.5 -18.7°
Maximum altitude 17:53:33 27° 146° (SE) 2,830 10.2 -19.7°
Enters shadow 17:57:40 21° 112° (ESE) 3,172 10.2 -20.2°
